[[{"header":{"parameterUnit":"m.s-1","parameterCategory":2,"la1":30.2991,"la2":30.254,"lo1":-89.0895,"lo2":-89.0444,"dx":0.0017,"dy":0.0017,"nx":28,"ny":28,"refTime":"2022-12-07T03:00:00:Z","depth":"0","parameterNumber":2,"parameterNumberName":"U-component_of_CURRENTS"},"data":[0,0,0,0,0,0,0,0,0,0,0,0,0,0,0,0,0,0,0,0,0,0,0,0,0,0,0,0,0,0,0,0,0,0,0,0,0,0,0,0,0,0,0,0,0,0,0,0,0,0,0,0,0,0,0,0,0,0,0.4795,0.4796,0,0.484,0.484,0.484,0.4816,0.4816,0.4815,0.4815,0.4807,0.4807,0.4807,0,0,0,0,0,0,0,0,0,0,0,0,0,0.4716,0.4717,0.4795,0.4797,0.4798,0.484,0.484,0.484,0.4816,0.4816,0.4815,0.4814,0.4807,0.4807,0.4807,0,0,0,0,0,0,0,0,0,0,0,0,0,0.4748,0.4717,0.4795,0.4796,0.4797,0.484,0.484,0.484,0.4816,0.4816,0.4815,0.4814,0.4806,0.4807,0.4807,0.4827,0,0,0.4809,0.4809,0,0,0,0,0,0,0,0,0.4746,0.475,0.4795,0.4796,0.4798,0.4828,0.481,0.4835,0.4817,0.4802,0.4815,0.4814,0.4814,0.4814,0.4815,0.4826,0.4826,0.4809,0.4809,0.4809,0.4809,0,0,0,0,0,0,0,0.4744,0.4748,0.4806,0.4797,0.4798,0.4805,0.4807,0.4814,0.4805,0.4803,0.4803,0.482,0.4814,0.4814,0.4814,0.4826,0.4809,0.4809,0.4809,0.481,0.4967,0.4971,0,0,0,0,0,0,0.4753,0.4746,0.4804,0.4808,0.4778,0.4807,0.481,0.4813,0.4807,0.4807,0.4821,0.4819,0.4814,0.4814,0.4814,0.4951,0.4809,0.481,0.481,0.4963,0.4968,0.4972,0,0,0,0,0,0,0.475,0.4757,0.4803,0.4784,0.4791,0.481,0.4814,0.4815,0.4828,0.4822,0.482,0.4836,0.4813,0.4813,0.4856,0.4946,0.481,0.481,0.4959,0.4965,0.497,0.5151,0,0,0,0,0,0,0.4748,0.4755,0.4762,0.4785,0.4793,0.4855,0.4816,0.4817,0.4843,0.4841,0.4834,0.4832,0.4813,0.4856,0.4857,0.4944,0.4811,0.4954,0.4961,0.4968,0.5141,0.5163,0.5182,0,0,0,0,0,0.4744,0.4765,0.4762,0.477,0.4801,0.4858,0.4863,0.4868,0.4845,0.4871,0.4871,0.4833,0.4904,0.4859,0.4859,0.4949,0.495,0.4959,0.4968,0.5131,0.5158,0.5181,0,0,0,0,0,0,0.4735,0.4766,0.4762,0.479,0.4833,0.4857,0.4881,0.4881,0.49,0.4897,0.487,0.487,0.4952,0.492,0.4871,0.5018,0.4926,0.4935,0.5051,0.5076,0.5096,0.5063,0.4811,0,0,0,0,0,0.4737,0.4757,0.4796,0.4821,0.4843,0.4862,0.4884,0.4896,0.4918,0.4924,0.4929,0.4943,0.4988,0.5003,0.5028,0.5092,0.507,0.5154,0.5175,0.5193,0.5168,0.52,0.522,0.5001,0.5001,0.5001,0,0,0.4748,0.4762,0.4778,0.4821,0.4845,0.4908,0.4872,0.4924,0.4982,0.4922,0.4996,0.5015,0.5022,0.5113,0.5146,0.5095,0.5265,0.5204,0.5219,0.5184,0.5211,0.5232,0.525,0.5007,0.5006,0.5005,0,0,0.4774,0.4787,0.4812,0.4863,0.4918,0.4947,0.497,0.5019,0.5042,0.5118,0.511,0.5172,0.5219,0.5257,0.5277,0.5419,0.5376,0.5445,0.5519,0.5553,0.557,0.5584,0.5666,0.5686,0.5451,0.5451,0.5452,0,0.4792,0.4813,0.4835,0.4887,0.4939,0.4972,0.5037,0.5085,0.5146,0.517,0.5165,0.5266,0.529,0.539,0.5462,0.5467,0.5482,0.5426,0.5578,0.5591,0.5602,0.5681,0.5701,0.5461,0.546,0.5459,0.5458,0,0.4825,0.4873,0.4903,0.4977,0.5043,0.5109,0.519,0.5252,0.5286,0.532,0.542,0.5458,0.5497,0.5562,0.556,0.5678,0.5667,0.5605,0.5508,0.5635,0.5712,0.5729,0.5475,0.5472,0.5469,0.5466,0,0,0.4785,0.4904,0.4913,0.497,0.5096,0.5153,0.5272,0.5366,0.5423,0.5499,0.5561,0.5686,0.5671,0.5692,0.5714,0.577,0.5927,0.5734,0.5731,0.5806,0.6043,0.5851,0.5851,0.5886,0.5888,0.589,0.6093,0,0.4803,0.4907,0.4964,0.5096,0.5169,0.5263,0.537,0.5469,0.5539,0.5615,0.5663,0.574,0.5732,0.5771,0.5824,0.5894,0.5966,0.5879,0.5913,0.5915,0.5719,0.586,0.5549,0.5684,0.6109,0.6112,0.6114,0,0.4796,0.4872,0.4991,0.5155,0.5193,0.5278,0.5431,0.5528,0.5649,0.5706,0.5765,0.579,0.5908,0.5863,0.6015,0.5958,0.6009,0.6058,0.6065,0.5809,0.575,0.561,0.5697,0.5559,0.6139,0.6137,0.6135,0,0.4733,0.4889,0.4978,0.5041,0.5232,0.5292,0.5385,0.5532,0.5609,0.5742,0.5799,0.59,0.5955,0.6027,0.6125,0.6081,0.6278,0.6218,0.6101,0.6092,0.5787,0.5743,0.5711,0.6305,0.6304,0.6304,0.6303,0,0.4724,0.4794,0.4949,0.5006,0.5111,0.5254,0.5361,0.5476,0.5614,0.5707,0.5805,0.5891,0.5992,0.6098,0.6169,0.6193,0.6308,0.6129,0.6117,0.585,0.5811,0.5635,0.5592,0.6311,0.631,0.6308,0.6307,0,0.4645,0.4751,0.4856,0.5032,0.5084,0.5151,0.5327,0.5411,0.5557,0.5677,0.5724,0.5904,0.6047,0.6149,0.6307,0.6227,0.6106,0.6278,0.5981,0.5924,0.5568,0.5546,0.53,0.5163,0.6151,0.6147,0.6144,0,0.461,0.4658,0.4833,0.4893,0.4964,0.508,0.5173,0.5354,0.5446,0.5687,0.5737,0.591,0.6022,0.6171,0.6096,0.6151,0.6021,0.5845,0.5656,0.551,0.5483,0.5318,0.5212,0.54,0.5391,0.5384,0.5378,0,0.4553,0.4611,0.4716,0.4819,0.4912,0.5018,0.5149,0.5213,0.5434,0.5544,0.5734,0.5848,0.5934,0.5796,0.5785,0.5778,0.5504,0.5685,0.5601,0.4931,0.4681,0.4554,0.5374,0.5312,0.5319,0.5324,0.5327,0.533,0.4511,0.4554,0.4686,0.4758,0.4862,0.4947,0.4964,0.5118,0.5242,0.5324,0.5576,0.5576,0.5483,0.5396,0.5366,0.4989,0.5069,0.4761,0.4782,0.4656,0.4368,0.5048,0.4899,0.4903,0.4906,0.491,0.4912,0,0.448,0.4543,0.4616,0.4712,0.4741,0.4833,0.4943,0.4916,0.4979,0.5067,0.5163,0.4964,0.4777,0.4668,0.4332,0.4117,0.3974,0.4,0.3729,0.3699,0.4364,0.4169,0.3765,0.3766,0.3766,0.3766,0.3766,0.3766,0.4489,0.4545,0.4559,0.4566,0.4604,0.4568,0.4583,0.4568,0.4582,0.4412,0.4214,0.4187,0.4126,0.3924,0.362,0.3532,0.3327,0.3089,0.3218,0.372,0.3794,0.3864,0.367,0.3169,0.3168,0.2342,0.2335,0.2331]},{"header":{"parameterUnit":"m.s-1","parameterCategory":2,"la1":30.2991,"la2":30.254,"lo1":-89.0895,"lo2":-89.0444,"dx":0.0017,"dy":0.0017,"nx":28,"ny":28,"refTime":"2022-12-07T03:00:00:Z","depth":"0","parameterNumber":3,"parameterNumberName":"V-component_of_CURRENTS"},"data":[0,0,0,0,0,0,0,0,0,0,0,0,0,0,0,0,0,0,0,0,0,0,0,0,0,0,0,0,0,0,0,0,0,0,0,0,0,0,0,0,0,0,0,0,0,0,0,0,0,0,0,0,0,0,0,0,0,0,0.005,0.0049,0,0.0006,0.0006,0.0005,-0.0027,-0.0027,-0.0027,-0.0027,-0.0094,-0.0096,-0.0097,0,0,0,0,0,0,0,0,0,0,0,0,0,0.0081,0.0081,0.005,0.0049,0.0049,0.0006,0.0006,0.0005,-0.0027,-0.0027,-0.0027,-0.0027,-0.0094,-0.0096,-0.0097,0,0,0,0,0,0,0,0,0,0,0,0,0,0.0055,0.0081,0.005,0.0028,0.0025,0.0006,0.0006,0.0005,-0.0026,-0.0027,-0.0027,-0.0028,-0.0093,-0.0095,-0.0098,-0.0104,0,0,-0.0105,-0.0106,0,0,0,0,0,0,0,0,0.0057,0.0054,0.0032,0.0029,0.0027,-0.0005,-0.0008,-0.0033,-0.0026,-0.0007,-0.0027,-0.0028,-0.0066,-0.0071,-0.0078,-0.0107,-0.011,-0.0105,-0.0106,-0.0107,-0.0108,0,0,0,0,0,0,0,0.0059,0.0056,0.0032,0.0031,0.0028,0.0012,0.0008,-0.0013,-0.0034,-0.0009,-0.0011,-0.0015,-0.0068,-0.0076,-0.008,-0.0111,-0.0105,-0.0107,-0.0108,-0.0109,-0.0174,-0.0174,0,0,0,0,0,0,0.0066,0.0058,0.0034,0.0031,0.0041,0.0012,0.0007,0.0005,-0.0034,-0.004,-0.0015,-0.0017,-0.0071,-0.0077,-0.0082,-0.0094,-0.0107,-0.0109,-0.0111,-0.0173,-0.0174,-0.0174,0,0,0,0,0,0,0.0067,0.0065,0.0035,0.0043,0.0038,0.0012,0.001,0.0005,-0.0004,-0.0038,-0.0045,-0.0018,-0.0072,-0.0079,-0.0109,-0.0097,-0.011,-0.0113,-0.0173,-0.0174,-0.0174,-0.0116,0,0,0,0,0,0,0.0068,0.0065,0.0066,0.0044,0.0038,0.0031,0.001,0.0004,-0.0006,-0.0008,-0.0043,-0.005,-0.0073,-0.0105,-0.0111,-0.01,-0.0114,-0.0173,-0.0173,-0.0174,-0.0118,-0.0115,-0.0112,0,0,0,0,0,0.0069,0.008,0.0067,0.0064,0.0041,0.0031,0.0027,0.0007,-0.0005,-0.0003,-0.0038,-0.0049,-0.0113,-0.0108,-0.0114,-0.0104,-0.0172,-0.0173,-0.0174,-0.0119,-0.0115,-0.0112,0,0,0,0,0,0,0.0093,0.0077,0.0062,0.0066,0.005,0.0026,0.0028,0.001,-0.0014,-0.0016,-0.0055,-0.0064,-0.0089,-0.0107,-0.01,-0.0127,-0.0144,-0.0146,-0.01,-0.0097,-0.0094,-0.0031,-0.0116,0,0,0,0,0,0.0099,0.0105,0.008,0.0084,0.0078,0.0052,0.0045,0.0033,0.0008,-0.0003,-0.0032,-0.0065,-0.0097,-0.0105,-0.0138,-0.0146,-0.0125,-0.0145,-0.0142,-0.0139,-0.0095,-0.0084,-0.0075,-0.0177,-0.0177,-0.0177,0,0,0.0107,0.0101,0.0102,0.0089,0.0076,0.0081,0.0047,0.0046,0.0049,-0.0006,-0.0014,-0.006,-0.0102,-0.0119,-0.013,-0.013,-0.0099,-0.014,-0.0137,-0.0094,-0.0084,-0.0073,-0.0064,-0.0177,-0.0177,-0.0177,0,0,0.0141,0.0123,0.0143,0.0135,0.0123,0.0106,0.0107,0.0083,0.0071,0.0052,0.0008,-0.0022,-0.007,-0.0088,-0.0106,-0.0104,-0.0094,-0.0127,-0.0046,-0.0038,-0.0028,-0.0019,0.0035,0.0048,-0.0113,-0.0113,-0.0113,0,0.0152,0.0174,0.0146,0.0164,0.0166,0.0122,0.0144,0.0125,0.0092,0.0097,0.0058,0.0008,-0.0046,-0.004,-0.0052,-0.0092,-0.007,-0.0055,-0.0029,-0.0021,-0.0012,0.004,0.0054,-0.011,-0.0111,-0.0111,-0.0111,0,0.0204,0.0217,0.0229,0.0236,0.0231,0.0243,0.0215,0.0211,0.0183,0.0168,0.0158,0.009,0.0075,0.0034,-0.0012,0.0018,0.0021,-0.0035,-0.0027,0.0002,0.0055,0.0068,-0.0106,-0.0107,-0.0108,-0.0109,0,0,0.0248,0.0263,0.027,0.0291,0.0273,0.0284,0.0288,0.0294,0.0325,0.0276,0.0317,0.0234,0.0213,0.0192,0.0133,0.0133,0.0182,0.0083,0.0082,0.0159,0.0247,0.0229,0.0242,0.0127,0.013,0.0131,0.0267,0,0.03,0.0356,0.0344,0.0393,0.0418,0.0387,0.0403,0.0402,0.0386,0.041,0.036,0.0361,0.0269,0.0265,0.0252,0.0187,0.0218,0.0154,0.019,0.0193,0.0189,0.0256,0.0238,0.0355,0.028,0.0283,0.0284,0,0.0364,0.0394,0.0453,0.049,0.05,0.0522,0.056,0.0569,0.058,0.0572,0.0576,0.0533,0.053,0.0436,0.0418,0.0381,0.0342,0.0298,0.03,0.0283,0.0199,0.0308,0.0382,0.0205,0.0305,0.0303,0.0302,0,0.0431,0.0477,0.0532,0.0541,0.0568,0.0601,0.0617,0.0631,0.0664,0.0691,0.073,0.0705,0.0718,0.0652,0.0563,0.0491,0.0564,0.0442,0.0415,0.0415,0.0412,0.0406,0.0342,0.0473,0.0473,0.0473,0.0472,0,0.0499,0.0548,0.0575,0.061,0.069,0.0681,0.0766,0.0776,0.0817,0.0899,0.0833,0.0913,0.0771,0.0779,0.0663,0.0617,0.0653,0.048,0.0456,0.0429,0.0424,0.0276,0.0151,0.0478,0.0477,0.0476,0.0475,0,0.0567,0.0582,0.0654,0.0702,0.0726,0.0786,0.0857,0.0919,0.0948,0.1059,0.1081,0.1094,0.1122,0.1013,0.094,0.0773,0.0608,0.0686,0.0691,0.0663,0.0387,0.0266,0.0241,0.0163,0.0647,0.0648,0.0648,0,0.0608,0.0651,0.0725,0.0779,0.0808,0.0889,0.0949,0.0983,0.1059,0.1192,0.1268,0.1337,0.1442,0.1346,0.1092,0.0949,0.074,0.0759,0.0587,0.0418,0.0266,0.0191,0.0119,0.062,0.062,0.062,0.062,0,0.0683,0.0708,0.0763,0.0869,0.0946,0.1031,0.1128,0.1208,0.1285,0.1421,0.1621,0.173,0.166,0.1514,0.1267,0.1105,0.0596,0.0752,0.0572,0.0256,0.018,0.0078,0.0509,0.0621,0.0621,0.0621,0.0621,0.0621,0.074,0.079,0.0864,0.0966,0.1053,0.1172,0.1275,0.1411,0.159,0.1844,0.1913,0.2172,0.1854,0.1536,0.1257,0.0677,0.0667,0.044,0.0323,0.0278,0.0144,0.0601,0.0665,0.0665,0.0666,0.0666,0.0666,0,0.0803,0.0861,0.0958,0.1082,0.119,0.1222,0.1394,0.1533,0.1794,0.2108,0.2348,0.241,0.1986,0.1508,0.0706,0.0294,0.0141,0.0072,-0.0061,-0.0106,0.0309,0.0243,0.0225,0.0226,0.0226,0.0226,0.0226,0.0226,0.0841,0.0935,0.098,0.117,0.1268,0.1436,0.1547,0.1783,0.2046,0.248,0.2733,0.2888,0.2482,0.1039,0.0076,-0.0139,-0.0408,-0.0453,-0.0573,-0.0346,-0.0322,-0.0299,-0.039,-0.0539,-0.054,-0.094,-0.0944,-0.0948]}],[{"header":{"parameterUnit":"m.s-1","parameterCategory":2,"la1":30.2991,"la2":30.254,"lo1":-89.0895,"lo2":-89.0444,"dx":0.0017,"dy":0.0017,"nx":28,"ny":28,"refTime":"2022-12-07T03:00:00:Z","depth":"2","parameterNumber":2,"parameterNumberName":"U-component_of_CURRENTS"},"data":[0,0,0,0,0,0,0,0,0,0,0,0,0,0,0,0,0,0,0,0,0,0,0,0,0,0,0,0,0,0,0,0,0,0,0,0,0,0,0,0,0,0,0,0,0,0,0,0,0,0,0,0,0,0,0,0,0,0,0.3043,0.3043,0,0.3087,0.3087,0.3088,0.3117,0.3118,0.3118,0.3118,0.3116,0.3116,0.3115,0,0,0,0,0,0,0,0,0,0,0,0,0,0.3062,0.3061,0.3043,0.3043,0.3044,0.3087,0.3087,0.3088,0.3117,0.3118,0.3118,0.3118,0.3116,0.3116,0.3115,0,0,0,0,0,0,0,0,0,0,0,0,0,0.3074,0.3061,0.3043,0.3064,0.3066,0.3086,0.3087,0.3088,0.3117,0.3118,0.3118,0.3118,0.3116,0.3116,0.3115,0.3106,0,0,0.3114,0.3114,0,0,0,0,0,0,0,0,0.3074,0.3074,0.306,0.3063,0.3065,0.3097,0.3093,0.3092,0.3117,0.3098,0.3118,0.3118,0.3105,0.3106,0.3114,0.3106,0.3106,0.3114,0.3114,0.3114,0.3114,0,0,0,0,0,0,0,0.3073,0.3072,0.306,0.3061,0.3064,0.3098,0.3099,0.3094,0.3098,0.31,0.3102,0.3107,0.3106,0.3114,0.3114,0.3106,0.3114,0.3114,0.3114,0.3113,0.3178,0.318,0,0,0,0,0,0,0.3063,0.3071,0.3059,0.3062,0.307,0.3097,0.3098,0.3086,0.3099,0.3102,0.3106,0.3108,0.3115,0.3114,0.3114,0.3173,0.3114,0.3113,0.3113,0.3176,0.3178,0.318,0,0,0,0,0,0,0.3062,0.306,0.3057,0.3069,0.3071,0.3095,0.3082,0.3087,0.3118,0.3105,0.3107,0.3135,0.3115,0.3114,0.3143,0.317,0.3113,0.3113,0.3173,0.3176,0.3179,0.3247,0,0,0,0,0,0,0.3063,0.306,0.3075,0.3067,0.3069,0.3072,0.3082,0.3088,0.3119,0.3122,0.3129,0.3128,0.3115,0.3144,0.3143,0.3169,0.3113,0.3171,0.3175,0.3178,0.3242,0.3252,0.326,0,0,0,0,0,0.3063,0.3078,0.3075,0.3076,0.308,0.3072,0.3077,0.3097,0.312,0.3128,0.3154,0.3129,0.3166,0.3145,0.3143,0.317,0.3169,0.3174,0.3178,0.3238,0.325,0.326,0,0,0,0,0,0,0.3089,0.3082,0.3079,0.309,0.3081,0.3077,0.3099,0.3112,0.314,0.3166,0.3151,0.3152,0.319,0.3174,0.3151,0.3202,0.3164,0.3169,0.3211,0.3222,0.323,0.3245,0.3112,0,0,0,0,0,0.3101,0.3099,0.3095,0.309,0.31,0.3105,0.3117,0.3133,0.3146,0.3161,0.3167,0.3185,0.3203,0.3208,0.3218,0.3238,0.326,0.3257,0.3266,0.3273,0.3287,0.336,0.3377,0.3195,0.3194,0.3194,0,0,0.3104,0.3098,0.3098,0.3096,0.3097,0.3109,0.3113,0.314,0.3167,0.3155,0.3206,0.3218,0.3219,0.3252,0.3267,0.3242,0.3338,0.3279,0.3285,0.3295,0.3367,0.3385,0.3401,0.3197,0.3197,0.3196,0,0,0.3107,0.3108,0.3122,0.3121,0.3138,0.3137,0.3149,0.317,0.3205,0.3251,0.3259,0.3297,0.331,0.3322,0.3327,0.3391,0.3388,0.3389,0.3438,0.3509,0.3525,0.3539,0.3594,0.3612,0.3386,0.3387,0.3387,0,0.3119,0.3116,0.3122,0.3136,0.3136,0.3149,0.3165,0.3201,0.3233,0.3278,0.328,0.3357,0.3349,0.34,0.342,0.3411,0.3448,0.3393,0.3522,0.3536,0.3549,0.3602,0.3621,0.339,0.339,0.339,0.3389,0,0.3134,0.3137,0.314,0.3148,0.316,0.3165,0.3205,0.3253,0.3299,0.3341,0.343,0.3444,0.3492,0.3489,0.3471,0.3556,0.355,0.353,0.3494,0.3572,0.3622,0.3641,0.3396,0.3394,0.3393,0.3392,0,0,0.3111,0.3147,0.3141,0.3145,0.3167,0.3168,0.3238,0.3294,0.3372,0.3431,0.3521,0.3559,0.3599,0.3608,0.3601,0.3645,0.376,0.3628,0.363,0.368,0.3922,0.3783,0.379,0.3768,0.3772,0.3775,0.392,0,0.3104,0.3123,0.315,0.3152,0.3155,0.3201,0.3247,0.3322,0.3414,0.3513,0.3579,0.3654,0.3636,0.367,0.3724,0.3743,0.3814,0.3722,0.384,0.3843,0.3709,0.3808,0.349,0.3581,0.3938,0.3942,0.3944,0,0.3095,0.3101,0.3117,0.3143,0.3156,0.3178,0.3272,0.3331,0.3487,0.3568,0.3689,0.3755,0.3836,0.3811,0.3934,0.388,0.3925,0.3939,0.3945,0.3804,0.3739,0.3561,0.3602,0.3975,0.3973,0.3971,0.3968,0,0.303,0.3066,0.3069,0.3074,0.3127,0.3171,0.3213,0.3356,0.3445,0.362,0.3708,0.384,0.3903,0.3989,0.4038,0.4007,0.4166,0.4126,0.4056,0.4046,0.3791,0.3751,0.4254,0.4254,0.4254,0.4253,0.4253,0,0.2974,0.2974,0.3048,0.3038,0.3083,0.3137,0.3235,0.3325,0.3482,0.3587,0.3732,0.3825,0.3955,0.4062,0.4099,0.4131,0.4234,0.4091,0.4084,0.3803,0.3765,0.4109,0.409,0.4259,0.4258,0.4257,0.4256,0,0.289,0.293,0.2943,0.3013,0.305,0.3086,0.3227,0.3293,0.3452,0.3601,0.3653,0.3847,0.3956,0.4076,0.4206,0.4185,0.4235,0.423,0.388,0.3828,0.4058,0.4041,0.4173,0.417,0.4167,0.4164,0.4162,0,0.2843,0.2841,0.2922,0.2946,0.2983,0.3063,0.3103,0.326,0.3339,0.359,0.3625,0.3818,0.3901,0.4038,0.4046,0.4109,0.4202,0.3835,0.3707,0.4075,0.4056,0.4043,0.4031,0.3411,0.3403,0.3396,0.3391,0,0.2757,0.28,0.282,0.2876,0.2919,0.297,0.3053,0.31,0.3274,0.3398,0.3527,0.3626,0.3774,0.3675,0.3762,0.3748,0.3789,0.37,0.4211,0.3459,0.3361,0.334,0.3353,0.3332,0.3338,0.3343,0.3346,0.3348,0.271,0.2714,0.2756,0.2791,0.2834,0.2831,0.2827,0.291,0.2992,0.3111,0.3298,0.334,0.3416,0.3363,0.3283,0.323,0.3494,0.3338,0.3357,0.3383,0.3248,0.3147,0.3054,0.3058,0.3062,0.3065,0.3067,0,0.2643,0.2647,0.2667,0.2672,0.2632,0.2742,0.2747,0.2682,0.2684,0.2845,0.294,0.276,0.2728,0.2808,0.2645,0.2652,0.2616,0.2531,0.2459,0.252,0.2574,0.2395,0.1977,0.1973,0.1969,0.1966,0,0,0.2608,0.2575,0.2563,0.2462,0.2484,0.2403,0.2384,0.2314,0.2345,0.2309,0.2355,0.2609,0.2731,0.2326,0.2273,0.2089,0.2278,0.2001,0.2883,0.2859,0.2908,0.3056,0.2851,0,0,0,0,0]},{"header":{"parameterUnit":"m.s-1","parameterCategory":2,"la1":30.2991,"la2":30.254,"lo1":-89.0895,"lo2":-89.0444,"dx":0.0017,"dy":0.0017,"nx":28,"ny":28,"refTime":"2022-12-07T03:00:00:Z","depth":"2","parameterNumber":3,"parameterNumberName":"V-component_of_CURRENTS"},"data":[0,0,0,0,0,0,0,0,0,0,0,0,0,0,0,0,0,0,0,0,0,0,0,0,0,0,0,0,0,0,0,0,0,0,0,0,0,0,0,0,0,0,0,0,0,0,0,0,0,0,0,0,0,0,0,0,0,0,0.0253,0.0252,0,0.021,0.0209,0.0209,0.0168,0.0168,0.0168,0.0167,0.0095,0.0093,0.0092,0,0,0,0,0,0,0,0,0,0,0,0,0,0.0241,0.0242,0.0253,0.0252,0.0252,0.021,0.0209,0.0209,0.0169,0.0168,0.0168,0.0167,0.0095,0.0093,0.0091,0,0,0,0,0,0,0,0,0,0,0,0,0,0.0226,0.0242,0.0253,0.0228,0.0226,0.021,0.0209,0.0208,0.0169,0.0168,0.0168,0.0167,0.0096,0.0094,0.0091,0.0086,0,0,0.0084,0.0083,0,0,0,0,0,0,0,0,0.0227,0.0226,0.0232,0.023,0.0227,0.0196,0.0179,0.0167,0.0169,0.0188,0.0167,0.0167,0.0127,0.0122,0.0113,0.0083,0.008,0.0084,0.0082,0.0081,0.008,0,0,0,0,0,0,0,0.0228,0.0227,0.0234,0.0232,0.0229,0.0199,0.0197,0.0176,0.0159,0.0187,0.0184,0.0182,0.0125,0.0116,0.0111,0.0079,0.0084,0.0081,0.008,0.0079,0.0033,0.0033,0,0,0,0,0,0,0.0241,0.0229,0.0235,0.0233,0.0228,0.0201,0.0198,0.0205,0.016,0.0154,0.0183,0.0181,0.012,0.0114,0.0108,0.0115,0.0081,0.0079,0.0077,0.0032,0.0033,0.0033,0,0,0,0,0,0,0.0241,0.0242,0.0237,0.023,0.0228,0.0202,0.021,0.0204,0.0195,0.0158,0.015,0.018,0.0119,0.0112,0.0093,0.0112,0.0078,0.0076,0.0032,0.0033,0.0033,0.0119,0,0,0,0,0,0,0.0241,0.0242,0.0247,0.0232,0.0229,0.0236,0.021,0.0204,0.0196,0.0193,0.0153,0.0145,0.0118,0.0097,0.0091,0.0108,0.0074,0.0032,0.0032,0.0033,0.0116,0.0122,0.0128,0,0,0,0,0,0.024,0.0257,0.0248,0.0249,0.0239,0.0237,0.0233,0.021,0.0196,0.0199,0.017,0.0147,0.0095,0.0096,0.0088,0.0105,0.0032,0.0032,0.0033,0.0113,0.0121,0.0128,0,0,0,0,0,0,0.0253,0.0254,0.0244,0.0259,0.0251,0.0231,0.023,0.0216,0.0195,0.0193,0.0151,0.0142,0.013,0.0103,0.0104,0.009,0.0059,0.0058,0.0123,0.013,0.0136,0.0159,0.0072,0,0,0,0,0,0.026,0.0275,0.0264,0.0276,0.0273,0.0252,0.0246,0.0237,0.0219,0.0209,0.0177,0.0147,0.0126,0.0117,0.0089,0.0087,0.0058,0.009,0.0096,0.0101,0.0113,0.0079,0.0084,0.0035,0.0035,0.0035,0,0,0.0267,0.0271,0.0277,0.028,0.0269,0.0283,0.0247,0.0252,0.0263,0.0205,0.0201,0.0164,0.0127,0.0122,0.0114,0.0104,0.01,0.0102,0.0107,0.0116,0.008,0.0085,0.009,0.0035,0.0035,0.0035,0,0,0.0299,0.0294,0.0317,0.0317,0.0316,0.0308,0.0313,0.0295,0.0284,0.0278,0.0239,0.0215,0.0179,0.0161,0.0147,0.0168,0.0128,0.0156,0.0214,0.0181,0.0185,0.0188,0.0164,0.0165,0.0166,0.0166,0.0166,0,0.0307,0.0338,0.0322,0.0345,0.0356,0.0325,0.0355,0.0342,0.032,0.0318,0.0288,0.0239,0.0201,0.0207,0.0211,0.0185,0.016,0.0195,0.0191,0.0193,0.0195,0.0169,0.0169,0.017,0.017,0.0169,0.0169,0,0.0357,0.038,0.0394,0.0419,0.0427,0.0447,0.0436,0.0437,0.0416,0.0396,0.0382,0.0327,0.0303,0.0283,0.0254,0.0256,0.0232,0.0199,0.0179,0.0206,0.0176,0.0174,0.0176,0.0175,0.0173,0.0172,0,0,0.0387,0.0423,0.0431,0.0461,0.0471,0.0491,0.0512,0.0522,0.0546,0.0496,0.0517,0.0459,0.042,0.0402,0.0358,0.0329,0.0314,0.0278,0.0274,0.0266,0.0249,0.0216,0.021,0.028,0.028,0.028,0.0226,0,0.0433,0.05,0.0505,0.0572,0.0606,0.0597,0.0625,0.063,0.0614,0.062,0.0558,0.0552,0.047,0.0469,0.0423,0.0345,0.0312,0.0333,0.0214,0.0211,0.0187,0.0207,0.0223,0.0174,0.0224,0.0223,0.0223,0,0.0485,0.0527,0.0598,0.0665,0.068,0.0717,0.0769,0.0791,0.0783,0.077,0.0741,0.0685,0.0642,0.0567,0.0444,0.0461,0.0365,0.0293,0.0289,0.0228,0.0174,0.0152,0.0168,0.0219,0.0219,0.0219,0.022,0,0.053,0.0599,0.0664,0.0683,0.0743,0.0784,0.0821,0.0836,0.088,0.0872,0.09,0.081,0.0794,0.0657,0.0492,0.0472,0.0352,0.0304,0.0184,0.0181,0.0156,0.015,0.0217,0.0217,0.0217,0.0217,0.0217,0,0.0584,0.0638,0.0695,0.0733,0.083,0.0849,0.0948,0.0964,0.1011,0.1085,0.0986,0.1022,0.0814,0.0715,0.0543,0.0363,0.0386,0.0203,0.0166,0.0186,0.0184,0.0188,0.0185,0.0215,0.0216,0.0216,0.0216,0,0.0624,0.0653,0.0738,0.0817,0.0854,0.0926,0.1053,0.1124,0.1151,0.1252,0.1262,0.1186,0.1052,0.0835,0.0618,0.0449,0.0268,0.0196,0.0236,0.0204,0.0106,0.0108,0.0063,0.0062,0.006,0.0059,0.0058,0,0.0651,0.0695,0.0804,0.0871,0.0915,0.1029,0.1119,0.1188,0.1279,0.1363,0.1424,0.1326,0.1272,0.0933,0.061,0.0309,0.0266,0.0127,0.0081,0.0123,0.0091,0.0095,0.0099,0.0084,0.0083,0.0083,0.0082,0,0.0705,0.0738,0.081,0.095,0.1056,0.119,0.1327,0.1427,0.1526,0.1602,0.168,0.1642,0.1324,0.1007,0.0584,0.0371,0.017,0.0106,0.0146,0.0118,0.0137,0.0107,0.0112,0.0077,0.0078,0.0078,0.0078,0.0079,0.0748,0.0807,0.0908,0.1044,0.117,0.1346,0.1477,0.1616,0.1771,0.1891,0.1853,0.1783,0.1439,0.0872,0.0525,0.014,0.0149,0.0008,0.0012,0.0016,0.0026,0.0041,-0.0034,-0.0034,-0.0034,-0.0034,-0.0034,0,0.0807,0.088,0.1003,0.1169,0.1317,0.1387,0.1613,0.1729,0.1911,0.1977,0.2012,0.1666,0.1324,0.0923,0.036,0.0038,0.001,-0.0075,-0.0029,-0.0022,-0.0017,-0.0007,-0.0077,-0.0078,-0.0079,-0.0079,0,0,0.0839,0.0956,0.1018,0.1262,0.1393,0.1609,0.175,0.1893,0.1982,0.2024,0.1967,0.1879,0.1414,0.1008,0.0566,0.025,0.0186,0.0175,0.024,0.0353,0.0363,0.0055,0.008,0,0,0,0,0]}],[{"header":{"parameterUnit":"m.s-1","parameterCategory":2,"la1":30.2991,"la2":30.254,"lo1":-89.0895,"lo2":-89.0444,"dx":0.0017,"dy":0.0017,"nx":28,"ny":28,"refTime":"2022-12-07T03:00:00:Z","depth":"4","parameterNumber":2,"parameterNumberName":"U-component_of_CURRENTS"},"data":[0,0,0,0,0,0,0,0,0,0,0,0,0,0,0,0,0,0,0,0,0,0,0,0,0,0,0,0,0,0,0,0,0,0,0,0,0,0,0,0,0,0,0,0,0,0,0,0,0,0,0,0,0,0,0,0,0,0,0.1763,0.1764,0,0.1821,0.1821,0.1822,0.1897,0.1898,0.1899,0.19,0.1928,0.1928,0.1928,0,0,0,0,0,0,0,0,0,0,0,0,0,0.1711,0.1711,0.1763,0.1764,0.1764,0.182,0.1821,0.1822,0.1897,0.1898,0.1899,0.19,0.1929,0.1928,0.1928,0,0,0,0,0,0,0,0,0,0,0,0,0,0.1749,0.1712,0.1763,0.1806,0.1811,0.182,0.1821,0.1823,0.1896,0.1898,0.1899,0.1901,0.1929,0.1928,0.1928,0.1896,0,0,0.1927,0.1927,0,0,0,0,0,0,0,0,0.1747,0.1751,0.1799,0.1803,0.1808,0.1851,0.1813,0.1845,0.1896,0.1866,0.19,0.1902,0.1897,0.19,0.1911,0.1897,0.1898,0.1927,0.1927,0.1927,0.1927,0,0,0,0,0,0,0,0.1744,0.1749,0.1788,0.18,0.1805,0.182,0.1828,0.182,0.1873,0.1869,0.1874,0.1876,0.19,0.1911,0.1912,0.1899,0.1927,0.1927,0.1927,0.1927,0.2014,0.2017,0,0,0,0,0,0,0.1732,0.1747,0.1786,0.179,0.1778,0.182,0.1828,0.1838,0.1874,0.1881,0.1875,0.1879,0.1911,0.1912,0.1913,0.1982,0.1927,0.1927,0.1926,0.2012,0.2015,0.2018,0,0,0,0,0,0,0.173,0.1735,0.1784,0.1767,0.1774,0.1819,0.1829,0.1838,0.1883,0.1879,0.1886,0.1915,0.1912,0.1913,0.1947,0.198,0.1926,0.1926,0.2009,0.2013,0.2016,0.2053,0,0,0,0,0,0,0.1729,0.1734,0.1753,0.1767,0.1775,0.1807,0.1827,0.1838,0.1879,0.1887,0.1914,0.1917,0.1913,0.1948,0.1947,0.1979,0.1926,0.2006,0.2011,0.2015,0.2048,0.2057,0.2065,0,0,0,0,0,0.1727,0.1736,0.1754,0.1759,0.1794,0.1807,0.1813,0.1851,0.188,0.1899,0.1932,0.1918,0.1978,0.1949,0.1947,0.198,0.2004,0.2009,0.2015,0.2045,0.2056,0.2065,0,0,0,0,0,0,0.1722,0.1744,0.1765,0.1782,0.1803,0.1819,0.1847,0.1866,0.1908,0.1931,0.1933,0.1937,0.1984,0.1981,0.1949,0.2026,0.1995,0.2,0.2018,0.2028,0.2036,0.2048,0.1926,0,0,0,0,0,0.1728,0.1747,0.1765,0.1783,0.18,0.1831,0.1849,0.1873,0.19,0.1923,0.1943,0.1975,0.1999,0.2014,0.2031,0.2056,0.2071,0.2086,0.2094,0.21,0.2114,0.2172,0.2186,0.2036,0.2036,0.2036,0,0,0.1732,0.1746,0.176,0.1785,0.1814,0.1832,0.1848,0.1885,0.1912,0.1915,0.1976,0.1999,0.2015,0.2056,0.2078,0.206,0.2152,0.2108,0.2113,0.2123,0.2179,0.2194,0.2206,0.204,0.2039,0.2039,0,0,0.1737,0.1768,0.1787,0.1805,0.1844,0.1857,0.1872,0.1911,0.195,0.1992,0.2017,0.2066,0.2093,0.2119,0.2131,0.2194,0.2194,0.221,0.2255,0.2311,0.2323,0.2334,0.2367,0.238,0.2213,0.2213,0.2213,0,0.1746,0.1766,0.1793,0.1813,0.1831,0.187,0.189,0.1926,0.1973,0.2012,0.2022,0.212,0.2123,0.2185,0.2215,0.221,0.2241,0.2206,0.232,0.2331,0.2342,0.2372,0.2387,0.2216,0.2215,0.2215,0.2215,0,0.1753,0.1783,0.1798,0.1836,0.1857,0.1883,0.1923,0.1968,0.2018,0.2058,0.2151,0.2181,0.2247,0.2255,0.2248,0.2336,0.2332,0.232,0.2286,0.2358,0.2387,0.2401,0.2219,0.2218,0.2217,0.2217,0,0,0.1737,0.1793,0.1803,0.1824,0.1874,0.1885,0.1944,0.2001,0.2061,0.2131,0.2216,0.2272,0.2326,0.2347,0.2366,0.2407,0.2493,0.2402,0.2404,0.242,0.2617,0.2445,0.2444,0.2507,0.251,0.2512,0.2603,0,0.1741,0.177,0.1803,0.1838,0.1856,0.191,0.1959,0.2022,0.2095,0.2187,0.2264,0.2352,0.2352,0.2405,0.2453,0.2484,0.2536,0.2469,0.2559,0.2561,0.2387,0.2456,0.2522,0.2614,0.2617,0.262,0.2621,0,0.1731,0.1753,0.1788,0.1843,0.1861,0.1896,0.1985,0.2037,0.2169,0.2241,0.2358,0.2429,0.253,0.2516,0.2629,0.2594,0.2623,0.2636,0.2639,0.2476,0.2415,0.2532,0.2647,0.2645,0.2643,0.2642,0.264,0,0.1676,0.1736,0.1762,0.178,0.1854,0.19,0.1951,0.2065,0.2134,0.23,0.2383,0.2514,0.2603,0.2665,0.2712,0.269,0.2814,0.2781,0.2658,0.2645,0.2755,0.2742,0.2874,0.2873,0.2873,0.2873,0.2873,0,0.1634,0.1661,0.175,0.176,0.1818,0.1882,0.1973,0.2051,0.219,0.2276,0.2429,0.252,0.2651,0.2736,0.2755,0.2746,0.2861,0.2679,0.2663,0.2768,0.2756,0.2764,0.275,0.2876,0.2876,0.2875,0.2874,0,0.1561,0.1619,0.1658,0.1752,0.1793,0.1836,0.1972,0.2029,0.2183,0.2304,0.2368,0.2558,0.267,0.2764,0.2862,0.2785,0.2795,0.2769,0.288,0.2868,0.2578,0.2566,0.2631,0.2626,0.2621,0.2618,0.2615,0,0.1519,0.1535,0.1643,0.1673,0.1726,0.1813,0.187,0.2017,0.2079,0.2298,0.2338,0.2526,0.2633,0.2644,0.2746,0.2779,0.2752,0.2724,0.2642,0.2578,0.2558,0.2552,0.2546,0.2608,0.2606,0.2605,0.2604,0,0.1437,0.1498,0.1528,0.1599,0.1662,0.1718,0.1812,0.1848,0.2011,0.2178,0.2267,0.2342,0.247,0.2548,0.2601,0.2614,0.2712,0.2677,0.2685,0.2608,0.2551,0.2533,0.2532,0.2589,0.2591,0.2592,0.2593,0,0.1387,0.1391,0.1445,0.1495,0.1562,0.1578,0.1654,0.1725,0.1809,0.2043,0.2069,0.2271,0.2442,0.2466,0.2507,0.2513,0.2474,0.2365,0.2389,0.2407,0.229,0.2181,0.2104,0,0,0,0,0,0.1323,0.1305,0.1333,0.136,0.1418,0.1464,0.1583,0.1665,0.1836,0.1843,0.1947,0.2057,0.2148,0.226,0.2225,0.2406,0.2475,0.2351,0.2359,0.2504,0.2522,0.2404,0,0,0,0,0,0,0.1272,0.1287,0.1283,0.1228,0.1232,0.1279,0.1352,0.1475,0.1497,0.1692,0.1771,0.1912,0.2055,0.2152,0.2183,0.2211,0.2165,0.2476,0.2469,0.2494,0.251,0.2524,0.2409,0,0,0,0,0]},{"header":{"parameterUnit":"m.s-1","parameterCategory":2,"la1":30.2991,"la2":30.254,"lo1":-89.0895,"lo2":-89.0444,"dx":0.0017,"dy":0.0017,"nx":28,"ny":28,"refTime":"2022-12-07T03:00:00:Z","depth":"4","parameterNumber":3,"parameterNumberName":"V-component_of_CURRENTS"},"data":[0,0,0,0,0,0,0,0,0,0,0,0,0,0,0,0,0,0,0,0,0,0,0,0,0,0,0,0,0,0,0,0,0,0,0,0,0,0,0,0,0,0,0,0,0,0,0,0,0,0,0,0,0,0,0,0,0,0,0.0249,0.0249,0,0.0229,0.0229,0.0229,0.0207,0.0207,0.0207,0.0207,0.0159,0.0158,0.0157,0,0,0,0,0,0,0,0,0,0,0,0,0,0.0233,0.0234,0.0249,0.0249,0.0248,0.0229,0.0229,0.0229,0.0207,0.0207,0.0207,0.0206,0.016,0.0158,0.0157,0,0,0,0,0,0,0,0,0,0,0,0,0,0.0229,0.0234,0.0249,0.0236,0.0235,0.0229,0.0229,0.0228,0.0207,0.0207,0.0207,0.0206,0.016,0.0159,0.0157,0.0154,0,0,0.0152,0.0152,0,0,0,0,0,0,0,0,0.0229,0.0229,0.0238,0.0237,0.0236,0.0221,0.0206,0.0202,0.0207,0.0217,0.0207,0.0206,0.0178,0.0175,0.0171,0.0152,0.015,0.0152,0.0151,0.015,0.015,0,0,0,0,0,0,0,0.0229,0.023,0.024,0.0238,0.0237,0.022,0.0219,0.0205,0.0198,0.0216,0.0215,0.0214,0.0177,0.0173,0.017,0.0149,0.0152,0.0151,0.015,0.0149,0.0125,0.0125,0,0,0,0,0,0,0.0236,0.023,0.0241,0.024,0.0232,0.022,0.022,0.0225,0.0199,0.0195,0.0214,0.0213,0.0176,0.0172,0.0168,0.0179,0.015,0.0149,0.0148,0.0124,0.0125,0.0125,0,0,0,0,0,0,0.0236,0.0237,0.0241,0.0235,0.0234,0.0221,0.0228,0.0225,0.0226,0.0198,0.0194,0.0219,0.0175,0.017,0.0163,0.0176,0.0148,0.0147,0.0124,0.0124,0.0125,0.019,0,0,0,0,0,0,0.0235,0.0238,0.0246,0.0235,0.0235,0.0243,0.0228,0.0225,0.0227,0.0225,0.0201,0.0196,0.0175,0.0165,0.0161,0.0173,0.0146,0.0124,0.0124,0.0125,0.0187,0.0192,0.0197,0,0,0,0,0,0.0235,0.0249,0.0247,0.0248,0.0247,0.0244,0.0242,0.0231,0.0227,0.023,0.0216,0.0197,0.0166,0.0165,0.016,0.0172,0.0123,0.0124,0.0125,0.0185,0.0191,0.0197,0,0,0,0,0,0,0.0244,0.0248,0.0245,0.0259,0.0254,0.0241,0.0244,0.0238,0.023,0.0232,0.0203,0.0197,0.0195,0.0173,0.0173,0.0165,0.014,0.014,0.0188,0.0194,0.0198,0.0207,0.0144,0,0,0,0,0,0.0252,0.0266,0.026,0.0272,0.027,0.026,0.0259,0.0255,0.0246,0.0242,0.0223,0.0204,0.0193,0.0186,0.0169,0.0168,0.0131,0.017,0.0175,0.0179,0.0182,0.0137,0.0138,0.0127,0.0127,0.0127,0,0,0.0258,0.0263,0.027,0.0275,0.027,0.0279,0.0258,0.0265,0.0277,0.0238,0.0243,0.0222,0.0196,0.0194,0.0191,0.0179,0.0163,0.018,0.0184,0.0185,0.0138,0.0139,0.0139,0.0128,0.0128,0.0128,0,0,0.0279,0.0283,0.03,0.0302,0.0305,0.03,0.0306,0.0297,0.0296,0.0298,0.0275,0.026,0.024,0.0224,0.0214,0.0234,0.019,0.023,0.0263,0.0219,0.022,0.022,0.0175,0.0171,0.0232,0.0232,0.0232,0,0.0286,0.031,0.0303,0.032,0.033,0.0313,0.0334,0.0331,0.0322,0.0324,0.0307,0.0278,0.0254,0.0255,0.026,0.0246,0.0213,0.0247,0.0226,0.0225,0.0224,0.0178,0.0172,0.0236,0.0235,0.0235,0.0235,0,0.0318,0.0339,0.0349,0.0369,0.0376,0.0392,0.0389,0.0397,0.039,0.0378,0.0374,0.0338,0.032,0.031,0.0292,0.0281,0.0257,0.0238,0.0214,0.0229,0.018,0.0172,0.024,0.0239,0.0238,0.0237,0,0,0.0333,0.0366,0.0372,0.0397,0.0408,0.0423,0.0443,0.0453,0.0473,0.0444,0.0455,0.0423,0.0396,0.0383,0.0355,0.0317,0.0278,0.028,0.0276,0.0241,0.018,0.0165,0.0155,0.0256,0.0255,0.0255,0.0149,0,0.0361,0.041,0.0418,0.0468,0.0492,0.0495,0.0517,0.0525,0.0519,0.0521,0.0478,0.0473,0.0427,0.0426,0.0379,0.0306,0.0262,0.0308,0.0166,0.0162,0.015,0.0147,0.0252,0.0143,0.0142,0.014,0.0139,0,0.0391,0.0424,0.0477,0.0532,0.0543,0.0573,0.0616,0.0635,0.0627,0.0621,0.0597,0.0556,0.0508,0.0465,0.0336,0.0368,0.0281,0.0214,0.0208,0.0167,0.0133,0.0123,0.0126,0.0127,0.0128,0.0129,0.013,0,0.0412,0.0469,0.0518,0.0535,0.0585,0.0623,0.0654,0.0667,0.0697,0.0688,0.0698,0.0621,0.0595,0.0474,0.033,0.0333,0.0175,0.0159,0.0061,0.0058,0.0075,0.0076,0.0062,0.0062,0.0062,0.0063,0.0063,0,0.0439,0.0483,0.054,0.0571,0.0647,0.0667,0.0744,0.0759,0.0785,0.0822,0.0756,0.0757,0.0595,0.0485,0.0346,0.0179,0.0181,0.0064,0.003,0.0105,0.011,0.007,0.0072,0.0059,0.006,0.006,0.0061,0,0.0453,0.0484,0.0555,0.0628,0.0661,0.072,0.0821,0.0869,0.0885,0.0933,0.0934,0.0851,0.0711,0.0534,0.033,0.021,0.0045,-0.0016,0.0076,0.0049,-0.0047,-0.004,-0.0131,-0.0132,-0.0134,-0.0135,-0.0136,0,0.0464,0.0499,0.0603,0.0659,0.0702,0.0797,0.0864,0.0917,0.097,0.0989,0.1008,0.0897,0.0818,0.0524,0.0325,0.005,0.0012,-0.008,-0.0063,-0.0043,-0.0067,-0.0058,-0.005,-0.0137,-0.0138,-0.0138,-0.0138,0,0.0487,0.0525,0.0585,0.0701,0.079,0.0894,0.0993,0.1038,0.1092,0.1104,0.1075,0.093,0.0769,0.0531,0.0314,0.0118,-0.0025,-0.0093,-0.0092,-0.0077,-0.0052,-0.0072,-0.0063,-0.0143,-0.0142,-0.0142,-0.0141,0,0.0509,0.0555,0.0638,0.0742,0.0853,0.0959,0.1016,0.1082,0.1132,0.1147,0.1128,0.0962,0.0861,0.0565,0.0364,0.0167,0.012,0.0053,0.0046,0.0048,0.0128,0.0187,0.014,0,0,0,0,0,0.0528,0.0581,0.0675,0.0792,0.0902,0.0974,0.1085,0.113,0.1178,0.1167,0.1156,0.1008,0.0723,0.0597,0.0399,0.0325,0.0071,0.0084,-0.0012,-0.0166,-0.0161,-0.01,0,0,0,0,0,0,0.0539,0.0622,0.0669,0.0811,0.0899,0.1029,0.1106,0.1143,0.1141,0.1153,0.1006,0.0946,0.0666,0.0836,0.0391,0.0331,0.0239,-0.0045,-0.005,-0.0168,-0.0164,-0.016,-0.0096,0,0,0,0,0]}]]